Wetbulb
38.99 39.36 39.61 39.79 39.79 39.74 39.78 40.05 40.42 40.69 40.78 40.87 40.86 40.59 40.28 40.42 40.36 40.59 40.91 41.26 41.21 41.26 41.28 41.43 41.53 41.75 41.89 42.04 42.00 42.04 42.12 42.13 42.17 42.29 42.37 42.42 42.57 42.69 42.98 43.42 43.76 44.11 44.24 44.29 44.52 44.70 44.87 45.09 45.17 45.04 44.87 44.87 44.70 44.56 44.69 45.03 45.21 45.13 44.91 44.83 44.83 44.83 44.87 45.00 45.12 45.43 45.83 46.09 46.35
38.40 38.78 39.21 39.69 39.64 39.54 39.52 39.61 39.98 40.21 40.52 40.87 40.83 40.67 40.28 40.15 40.09 40.17 40.37 40.74 41.00 41.11 41.14 41.00 41.27 41.29 41.31 41.49 41.67 41.67 41.63 41.58 41.41 41.36 41.39 41.21 41.39 41.77 42.11 42.38 42.80 43.23 43.58 43.59 43.74 43.70 43.67 43.84 43.97 43.80 43.67 43.75 43.79 43.66 43.65 44.23 44.55 44.17 43.66 43.52 43.78 43.96 44.09 44.04 44.12 44.51 44.86 45.13 45.22
38.08 38.34 38.65 38.73 38.89 38.84 38.79 38.74 39.05 39.45 39.85 40.30 40.49 40.54 40.41 40.20 40.05 39.99 40.11 40.44 40.89 41.03 41.04 40.74 40.95 40.89 40.76 40.90 41.12 41.29 41.33 41.16 41.04 40.91 40.77 40.55 40.68 41.01 41.35 41.67 42.01 42.42 42.84 43.07 42.90 42.70 42.55 42.69 42.56 42.47 42.20 42.32 42.52 42.52 42.62 42.89 43.15 42.93 42.67 42.62 42.80 42.93 42.93 42.84 43.09 43.56 44.04 44.30 44.26
38.01 38.23 38.29 38.29 38.33 38.37 38.45 38.42 38.72 38.99 39.31 39.62 40.04 40.21 40.24 39.91 39.81 39.88 40.10 40.50 40.72 40.72 40.71 40.69 41.08 41.14 40.98 40.72 40.70 40.76 40.92 40.96 40.80 40.62 40.32 40.19 40.24 40.41 40.62 40.89 40.98 41.31 41.84 42.12 41.95 41.87 41.68 41.54 41.29 40.98 40.95 41.22 41.38 41.56 41.84 42.17 42.40 42.27 42.05 42.17 42.35 42.35 42.30 42.26 42.60 42.85 43.27 43.61 43.70
37.82 38.14 38.28 38.24 38.30 38.48 38.56 38.71 38.71 38.88 39.07 39.38 39.49 39.52 39.75 39.92 39.92 39.89 39.97 40.03 39.95 40.13 40.30 40.67 41.09 41.19 41.02 40.67 40.35 40.31 40.35 40.47 40.42 40.29 39.92 39.74 39.88 40.05 40.13 40.12 40.11 40.34 40.66 40.85 41.06 41.19 41.26 41.23 40.82 40.46 40.34 40.44 40.58 40.88 41.34 41.67 41.81 41.69 41.69 41.74 41.77 41.68 41.63 41.58 41.93 42.22 42.55 42.80 43.28
37.54 38.05 38.51 38.68 38.62 38.59 38.65 38.74 38.75 38.83 39.04 39.18 38.94 38.95 39.01 39.09 39.39 39.49 39.55 39.44 39.77 40.04 40.34 40.66 40.77 40.70 40.48 40.20 39.99 39.87 39.90 39.82 39.80 39.67 39.57 39.60 39.70 39.59 39.67 39.70 39.70 39.95 40.29 40.39 40.54 40.91 41.13 40.84 40.16 39.78 39.70 39.77 40.33 40.68 41.11 41.39 41.14 41.13 41.05 40.98 41.01 41.04 41.03 40.98 41.29 41.58 41.83 41.81 42.02
37.54 37.86 38.30 38.69 38.86 38.69 38.67 38.70 38.97 39.07 39.17 39.25 38.78 38.65 38.72 38.99 39.18 39.40 39.53 39.48 39.69 39.90 40.11 40.27 40.19 39.91 39.62 39.32 39.16 39.13 39.14 39.10 39.15 39.18 39.09 38.84 38.79 38.88 39.09 39.11 39.16 39.35 39.68 40.11 40.12 40.32 40.49 40.41 39.54 39.16 39.09 39.15 39.22 40.00 40.84 40.99 40.84 40.72 40.50 40.25 40.42 40.52 40.61 40.79 41.04 41.05 40.96 40.71 40.77
37.62 37.74 38.00 38.35 38.73 38.65 38.58 38.55 38.80 38.93 38.91 38.81 38.55 38.55 38.78 39.22 39.45 39.55 39.57 39.56 39.45 39.64 39.84 39.78 39.55 39.30 39.03 38.85 38.77 38.77 38.63 38.46 38.38 38.36 38.37 38.20 38.10 38.22 38.50 38.58 38.49 38.63 38.99 39.47 39.44 39.50 39.67 39.53 38.86 38.51 38.36 38.51 38.62 39.19 40.01 40.63 40.61 40.45 40.08 39.75 39.83 40.18 40.46 40.86 40.96 40.74 40.42 40.24 40.37
37.29 37.57 37.86 38.31 38.58 38.62 38.69 38.73 38.62 38.57 38.43 38.29 38.67 38.86 39.08 39.36 39.67 39.64 39.54 39.15 39.46 39.85 40.01 39.83 39.62 39.37 39.02 38.51 38.48 38.35 38.33 38.31 38.24 38.25 38.19 38.30 38.00 37.87 37.88 38.05 38.22 38.49 38.64 38.95 38.78 38.82 38.84 38.65 38.31 38.25 38.19 38.09 38.08 38.66 39.42 39.97 39.95 39.75 39.36 38.93 39.01 39.36 39.91 40.46 40.59 40.39 40.22 40.03 40.05
36.46 36.88 37.28 37.54 37.64 38.09 38.51 38.66 38.44 38.35 38.13 38.02 38.40 38.82 39.15 39.33 39.45 39.50 39.50 39.55 40.05 40.10 39.95 39.90 39.85 39.51 39.11 38.66 38.52 38.43 38.23 38.08 37.94 37.77 37.86 37.92 38.09 38.08 37.92 37.86 37.96 38.08 38.29 38.52 38.43 38.38 38.14 37.78 37.63 37.63 37.77 37.72 37.87 38.36 38.80 39.14 38.87 38.62 38.45 38.07 38.40 38.70 38.99 39.28 39.39 39.38 39.39 39.49 39.53
36.00 36.40 36.69 36.84 37.13 37.54 37.89 37.70 37.88 37.84 37.74 37.65 37.97 38.29 38.59 38.78 38.97 39.38 39.85 40.34 40.01 39.72 39.67 40.03 39.91 39.67 39.31 39.12 39.06 38.96 38.83 38.52 38.06 37.73 37.50 37.33 37.73 37.69 37.55 37.46 37.60 37.61 37.64 37.84 37.91 37.77 37.51 37.09 36.97 37.03 37.11 37.06 37.44 37.75 37.98 38.16 37.94 37.76 37.67 37.43 37.67 37.78 37.76 37.88 38.24 38.50 38.61 38.72 38.85
35.77 36.08 36.44 36.78 37.09 37.26 37.22 37.06 37.22 37.33 37.39 37.52 37.82 38.07 38.21 38.49 38.95 39.54 39.94 39.99 39.35 39.30 39.50 39.91 39.95 39.77 39.53 39.22 39.17 39.06 38.93 38.79 38.48 38.00 37.56 37.32 37.49 37.31 36.99 36.84 36.84 36.79 36.88 37.03 37.22 37.15 36.88 36.73 36.46 36.33 36.23 36.43 36.69 36.90 37.01 37.15 36.97 36.86 36.73 36.75 36.85 36.92 36.95 37.31 37.76 38.05 38.36 38.35 38.32
35.43 35.74 36.01 36.39 36.70 36.80 36.76 36.76 36.97 37.00 37.17 37.38 37.85 38.14 38.30 38.43 39.09 39.45 39.66 39.27 39.16 39.30 39.53 39.83 39.92 39.87 39.64 39.41 39.25 39.00 38.83 38.61 38.48 38.06 37.76 37.54 37.46 37.27 36.87 36.46 36.37 36.37 36.46 36.81 37.05 36.80 36.43 36.19 35.84 35.57 35.42 35.43 35.71 36.00 36.24 36.28 36.17 35.98 35.85 35.87 35.91 35.99 36.25 36.75 37.28 37.55 37.77 37.77 37.62
35.29 35.52 35.71 36.04 36.42 36.53 36.50 36.41 36.59 36.73 36.82 37.03 37.64 38.05 38.42 38.52 39.07 39.32 39.36 39.16 39.19 39.40 39.50 39.59 39.62 39.61 39.51 39.41 39.29 39.12 38.86 38.60 38.22 37.88 37.45 37.19 37.13 36.90 36.70 36.38 36.29 36.20 36.20 36.38 36.48 36.33 35.91 35.54 35.31 34.96 34.69 34.54 34.69 35.00 35.25 35.57 35.47 35.33 35.27 35.14 35.08 35.28 35.59 36.09 36.65 37.00 37.10 37.01 36.95
34.69 34.95 35.27 35.66 35.94 36.06 36.10 36.05 36.05 36.13 36.24 36.50 37.06 37.55 37.99 38.26 38.59 38.73 38.81 38.72 38.90 39.03 39.01 38.96 38.94 39.15 39.37 39.49 39.30 39.12 38.94 38.64 38.12 37.64 37.13 36.79 36.65 36.44 36.24 36.07 35.86 35.78 35.60 35.54 35.47 35.46 35.35 35.17 34.98 34.74 34.52 34.33 34.41 34.65 34.91 35.09 35.00 34.94 34.83 34.72 34.76 34.88 35.19 35.61 36.09 36.48 36.57 36.45 36.32
33.86 34.22 34.60 34.86 35.02 35.15 35.27 35.31 35.37 35.49 35.60 35.81 36.36 36.67 36.89 37.04 37.56 37.77 37.83 37.85 37.97 38.08 38.12 38.10 38.21 38.39 38.56 38.83 38.78 38.79 38.69 38.42 37.97 37.44 36.92 36.52 36.23 35.97 35.66 35.38 35.25 35.16 34.99 34.67 34.55 34.58 34.62 34.54 34.44 34.43 34.25 34.08 34.12 34.25 34.34 34.47 34.43 34.37 34.36 34.44 34.56 34.81 35.03 35.40 35.77 36.09 36.19 36.24 35.99
33.23 33.55 33.83 34.12 34.14 34.14 34.19 34.41 34.62 34.63 34.73 34.98 35.49 35.67 35.77 35.89 36.35 36.59 36.87 37.09 37.25 37.13 37.10 37.12 37.26 37.42 37.49 37.67 37.91 37.95 37.86 37.60 37.23 36.97 36.59 36.27 35.98 35.68 35.21 34.87 34.87 34.78 34.73 34.33 34.19 34.10 34.01 33.79 33.88 33.93 33.88 33.77 33.66 33.66 33.79 34.04 34.03 34.03 34.08 34.28 34.45 34.67 34.89 35.24 35.51 35.82 36.04 36.10 35.93
32.39 32.62 32.86 33.01 33.10 33.18 33.38 33.59 33.69 33.77 33.92 34.24 34.50 34.57 34.63 34.94 35.13 35.43 35.74 36.15 36.10 36.12 36.14 36.27 36.61 36.76 36.76 36.93 37.22 37.36 37.27 36.89 36.43 36.01 35.81 35.77 35.66 35.39 35.00 34.73 34.70 34.70 34.65 34.12 33.88 33.66 33.50 33.46 33.68 33.81 33.81 33.79 33.75 33.79 33.96 34.12 34.14 34.17 34.17 34.25 34.34 34.59 34.81 35.03 35.29 35.68 35.87 35.93 35.99
31.18 31.38 31.53 31.72 32.00 32.36 32.74 32.91 32.98 33.04 33.13 33.32 33.41 33.52 33.75 34.11 34.21 34.35 34.53 34.97 35.28 35.51 35.73 35.93 36.10 36.33 36.54 36.63 36.72 36.93 37.06 36.97 36.40 35.91 35.41 35.19 34.98 34.74 34.47 34.32 34.32 34.39 34.29 33.85 33.57 33.35 33.34 33.35 33.53 33.61 33.69 33.64 33.64 33.69 33.82 33.86 33.96 34.08 34.23 34.30 34.43 34.59 34.77 34.94 35.25 35.60 35.87 36.09 36.13
30.24 30.24 30.41 30.76 31.23 31.66 32.06 32.28 32.18 32.23 32.39 32.65 32.73 32.93 33.30 33.66 33.84 34.00 34.18 34.55 35.11 35.51 35.62 35.32 35.52 35.77 35.96 36.06 36.33 36.45 36.73 36.94 37.04 36.73 36.16 35.48 34.80 34.37 33.98 33.69 33.31 33.18 33.16 32.95 32.84 32.86 33.05 33.19 33.11 33.11 33.14 33.13 33.09 33.10 33.18 33.38 33.53 33.69 33.93 34.17 34.25 34.43 34.65 34.78 35.09 35.40 35.74 36.09 36.13
29.61 29.58 29.75 30.24 30.54 30.91 31.26 31.46 31.50 31.69 31.82 32.07 32.17 32.26 32.44 33.02 33.34 33.63 33.74 34.00 34.43 34.72 34.87 34.84 35.02 35.20 35.49 35.78 35.94 36.22 36.51 36.91 37.17 37.23 37.00 36.39 35.62 34.92 34.47 33.93 33.30 32.77 32.28 31.61 31.65 32.08 32.54 32.81 32.69 32.55 32.42 32.59 32.58 32.65 32.73 32.77 32.81 32.97 33.25 33.56 33.79 34.03 34.30 34.49 34.74 35.02 35.35 35.87 36.13
29.02 29.10 29.32 29.72 30.16 30.56 30.78 30.96 31.05 31.21 31.21 31.31 31.50 31.75 31.94 32.17 32.56 32.86 33.18 33.60 33.79 33.92 34.01 34.18 34.22 34.48 34.68 34.97 35.20 35.56 36.03 36.52 36.89 37.12 37.17 37.12 36.61 36.02 35.58 35.11 34.33 33.46 32.59 32.00 32.14 32.15 32.21 32.11 32.14 31.91 31.64 31.57 31.89 31.99 32.00 31.82 31.88 32.05 32.31 32.78 33.25 33.70 34.03 34.36 34.57 34.84 35.27 35.62 35.94
28.30 28.53 28.91 29.35 29.96 30.32 30.54 30.75 30.83 30.81 30.83 30.88 30.74 30.88 31.11 31.39 31.77 32.21 32.56 32.98 33.17 33.36 33.41 33.55 33.70 33.91 34.12 34.30 34.53 34.78 35.15 35.73 36.20 36.52 36.84 37.15 37.26 37.23 37.02 36.56 35.99 35.21 34.52 34.06 33.57 32.96 32.42 31.98 32.13 32.18 32.02 31.52 31.70 31.80 31.76 31.45 31.65 31.97 32.28 32.70 33.27 33.79 34.28 34.55 34.85 35.21 35.49 35.85 36.08
27.61 27.92 28.38 28.91 29.15 29.64 30.16 30.56 30.42 30.27 30.07 29.93 30.15 30.34 30.63 30.98 31.27 31.57 31.88 32.14 32.48 32.82 33.12 33.33 33.43 33.60 33.79 34.15 34.32 34.43 34.46 34.76 35.18 35.60 36.10 36.52 36.83 37.09 37.08 36.82 36.33 35.90 35.35 35.01 34.46 33.97 33.37 32.83 32.77 32.66 32.55 32.33 32.11 31.99 32.03 31.93 32.07 32.23 32.36 32.59 32.98 33.40 33.90 34.31 34.77 35.03 35.24 35.47 35.79
26.91 27.27 27.73 28.18 28.49 29.15 29.69 29.88 29.63 29.35 29.22 29.35 29.67 30.01 30.38 30.68 31.00 31.16 31.46 31.76 32.24 32.69 33.11 33.49 33.67 33.85 34.01 34.16 34.30 34.32 34.17 33.93 34.11 34.55 35.02 35.46 36.06 36.48 36.72 36.41 36.06 35.81 35.63 35.42 35.23 34.70 33.94 33.29 32.78 32.47 32.35 32.27 32.00 31.91 31.82 31.77 31.84 31.88 31.98 32.06 32.27 32.52 32.82 33.16 33.69 34.20 34.65 35.04 35.45
26.54 26.92 27.23 27.40 27.85 28.53 29.02 29.08 28.68 28.46 28.50 28.88 29.23 29.52 29.77 30.11 30.47 30.86 31.13 31.44 32.00 32.66 33.23 33.78 34.03 34.16 34.26 34.25 34.48 34.40 34.19 33.93 33.76 33.80 34.07 34.50 35.13 35.72 36.25 36.36 35.92 35.69 35.69 35.93 35.88 35.47 34.81 34.11 33.41 32.82 32.40 32.24 32.04 31.78 31.58 31.53 31.67 31.71 31.75 31.86 31.97 32.07 32.11 32.19 32.55 33.06 33.58 34.14 34.90
26.29 26.54 26.80 27.14 27.73 28.22 28.46 28.25 27.98 27.94 28.15 28.46 28.76 29.04 29.31 29.74 30.20 30.53 30.86 31.13 31.66 32.36 32.92 33.23 33.54 33.82 34.16 34.42 34.52 34.59 34.59 34.64 34.76 34.62 34.29 33.97 34.17 34.83 35.54 36.11 35.91 35.70 35.67 35.93 35.95 35.61 35.22 34.59 33.93 33.23 32.69 32.34 32.08 31.76 31.54 31.30 31.40 31.51 31.52 31.56 31.72 31.72 31.70 31.59 31.78 32.20 32.72 33.32 34.05
26.09 26.66 26.95 27.16 27.49 27.68 27.86 27.77 27.55 27.61 27.82 28.23 28.54 28.91 29.32 29.64 29.87 30.16 30.46 30.91 31.39 31.91 32.22 32.52 33.00 33.57 34.06 34.28 34.30 34.52 34.77 35.05 35.50 35.71 35.62 35.26 34.31 34.28 34.87 35.67 36.35 36.27 35.98 36.00 35.78 35.44 35.02 34.60 34.10 33.44 32.84 32.26 32.04 31.83 31.57 31.36 31.30 31.28 31.20 31.20 31.30 31.43 31.50 31.54 31.71 31.90 32.21 32.58 33.27
25.84 26.59 26.95 26.92 26.94 27.10 27.20 27.17 27.12 27.27 27.68 28.14 28.62 29.00 29.38 29.56 29.71 29.86 30.17 30.50 30.90 31.30 31.67 32.08 32.75 33.17 33.47 33.48 33.85 34.22 34.53 34.83 35.32 35.69 35.94 35.78 35.16 34.62 34.48 35.44 36.36 36.40 36.17 36.17 35.72 35.29 34.79 34.41 33.98 33.55 33.04 32.41 32.11 31.76 31.50 31.27 31.20 31.14 30.97 30.97 31.01 31.15 31.26 31.44 31.53 31.72 31.91 32.20 32.53
25.46 26.24 26.62 26.54 26.55 26.50 26.55 26.46 26.72 27.06 27.64 28.26 28.67 28.96 29.26 29.32 29.52 29.67 29.81 29.93 30.19 30.57 31.18 31.82 32.31 32.47 32.63 32.93 33.39 33.76 34.00 34.24 34.75 35.14 35.33 35.36 34.95 34.91 35.09 35.58 36.29 36.53 36.35 36.06 35.68 35.27 34.72 34.22 33.86 33.46 33.06 32.58 32.22 31.84 31.52 31.21 31.01 30.90 30.75 30.69 30.77 30.88 30.98 31.15 31.24 31.38 31.57 31.74 31.96
25.26 26.10 26.51 26.33 26.08 25.97 25.97 26.12 26.59 27.14 27.80 28.47 28.77 28.94 29.02 28.95 28.94 29.08 29.31 29.56 29.77 30.21 30.82 31.36 31.56 31.73 31.98 32.53 32.85 33.06 33.32 33.71 34.00 34.26 34.42 34.63 34.77 35.05 35.48 36.12 36.34 36.50 36.39 36.09 35.70 35.22 34.74 34.23 33.71 33.23 32.83 32.50 32.27 31.92 31.64 31.21 31.03 30.87 30.70 30.58 30.58 30.64 30.80 30.94 30.93 30.94 31.05 31.17 31.36
24.97 25.89 26.31 26.19 25.88 25.76 25.79 26.10 26.57 27.23 27.90 28.43 28.67 28.72 28.60 28.38 28.37 28.63 28.97 29.36 29.67 30.03 30.34 30.57 30.61 30.83 31.20 31.72 32.11 32.41 32.70 32.87 33.14 33.37 33.77 34.21 34.76 35.22 35.54 35.97 36.55 36.80 36.61 36.04 35.59 35.18 34.66 34.11 33.61 33.06 32.64 32.33 32.08 31.93 31.74 31.39 31.20 31.01 30.79 30.70 30.64 30.70 30.63 30.60 30.64 30.61 30.60 30.77 30.88
24.84 25.68 26.14 26.10 25.93 25.93 26.05 26.37 27.01 27.55 28.17 28.55 28.51 28.44 28.37 28.31 28.47 28.67 28.87 29.21 29.37 29.50 29.50 29.49 29.56 29.76 30.13 30.65 31.20 31.64 31.84 32.04 32.37 32.74 33.23 33.95 34.61 34.95 35.15 35.26 36.00 36.67 36.90 36.12 35.51 35.07 34.55 33.96 33.49 33.02 32.60 32.27 32.16 31.97 31.79 31.59 31.39 31.14 30.89 30.77 30.78 30.74 30.61 30.44 30.35 30.33 30.37 30.53 30.74
24.96 25.59 25.99 26.07 25.97 25.96 26.23 26.67 27.40 27.92 28.19 28.25 28.20 28.21 28.29 28.49 28.54 28.56 28.59 28.75 28.90 28.93 28.82 28.69 28.73 28.99 29.38 29.90 30.42 30.85 31.22 31.64 32.06 32.55 33.15 33.83 34.49 34.62 34.59 34.47 35.43 36.48 37.02 36.24 35.54 34.95 34.43 33.84 33.33 32.87 32.55 32.28 32.24 31.95 31.52 31.26 31.07 30.81 30.64 30.60 30.63 30.69 30.62 30.55 30.45 30.38 30.36 30.36 30.74
25.15 25.74 25.99 26.02 26.03 26.14 26.44 26.94 27.55 27.98 28.07 27.82 27.77 27.80 28.05 28.28 28.32 28.29 28.32 28.45 28.54 28.50 28.45 28.41 28.57 28.83 29.07 29.46 29.90 30.24 30.51 30.88 31.59 32.22 32.94 33.58 34.11 34.18 34.05 34.01 34.92 36.14 36.89 36.48 35.51 34.87 34.35 33.75 33.19 32.74 32.41 32.33 32.39 32.08 31.55 30.97 30.66 30.43 30.27 30.25 30.35 30.44 30.46 30.50 30.44 30.50 30.44 30.36 30.63
25.13 25.88 26.18 26.06 26.19 26.40 26.73 27.24 27.72 27.90 27.81 27.63 27.47 27.47 27.53 27.69 27.90 28.21 28.40 28.55 28.55 28.43 28.39 28.47 28.69 28.77 28.80 28.88 29.05 29.32 29.68 30.20 30.90 31.73 32.45 33.16 33.60 33.74 33.74 33.89 34.54 35.52 36.37 36.75 35.62 34.78 34.20 33.68 33.13 32.69 32.41 32.48 32.43 32.08 31.53 31.07 30.68 30.30 30.06 29.97 29.99 30.10 30.24 30.36 30.50 30.47 30.53 30.58 30.66
24.77 25.81 26.44 26.31 26.31 26.48 26.87 27.39 27.68 27.68 27.59 27.40 27.34 27.28 27.26 27.25 27.43 27.84 28.27 28.57 28.37 28.23 28.11 28.25 28.27 28.23 28.18 28.17 28.19 28.49 29.04 29.73 30.51 31.17 31.83 32.53 33.12 33.27 33.43 33.68 34.21 34.92 35.82 36.73 35.84 34.97 34.16 33.78 33.18 32.78 32.53 32.38 32.13 31.81 31.37 31.05 30.68 30.37 29.99 29.70 29.83 30.02 30.27 30.44 30.49 30.49 30.53 30.62 30.57
24.13 25.36 26.35 26.59 26.49 26.62 26.98 27.43 27.59 27.51 27.26 27.08 27.08 27.03 27.07 27.21 27.20 27.53 27.89 28.28 28.19 28.00 27.78 27.80 27.66 27.69 27.73 27.92 28.00 28.25 28.81 29.45 30.14 30.71 31.28 31.87 32.55 32.85 33.02 33.10 33.76 34.41 35.20 36.40 36.19 35.36 34.36 33.94 33.42 33.03 32.68 32.33 31.96 31.51 31.08 30.64 30.39 30.08 29.83 29.62 29.83 30.07 30.29 30.57 30.65 30.62 30.60 30.50 30.06
23.71 24.84 26.02 26.83 26.70 26.79 27.03 27.44 27.47 27.34 27.13 26.88 26.72 26.72 26.75 27.07 26.98 27.12 27.27 27.72 28.03 28.00 27.72 27.39 27.31 27.47 27.77 28.02 28.08 28.26 28.50 28.91 29.63 30.22 30.77 31.27 31.93 32.19 32.36 32.63 33.18 33.82 34.70 35.82 36.27 35.69 34.87 34.28 33.69 33.21 32.74 32.30 32.11 31.69 31.07 30.26 29.86 29.70 29.66 29.72 29.87 30.09 30.33 30.59 30.59 30.60 30.54 30.48 29.89
23.34 24.11 25.28 26.63 26.79 27.00 27.13 27.34 27.19 27.11 27.01 26.98 26.63 26.54 26.59 26.84 26.75 26.62 26.74 27.07 27.68 27.84 27.68 27.28 27.19 27.57 27.88 28.03 28.05 28.15 28.28 28.61 29.16 29.68 30.17 30.57 31.01 31.16 31.42 32.16 32.66 33.23 34.03 35.05 35.88 35.84 35.27 34.62 33.79 33.24 32.74 32.17 32.29 32.10 31.45 30.50 29.90 29.60 29.59 29.83 29.90 30.06 30.26 30.53 30.57 30.56 30.57 30.54 30.42
22.81 23.36 24.38 25.75 26.56 27.07 27.31 27.25 26.71 26.45 26.52 26.77 26.48 26.41 26.47 26.57 26.47 26.54 26.69 26.99 27.27 27.47 27.39 27.19 27.15 27.43 27.80 28.02 28.14 28.13 28.09 28.16 28.59 29.08 29.57 29.96 30.23 30.45 30.85 31.63 32.18 32.74 33.32 34.11 34.97 35.31 35.38 35.19 34.42 33.56 32.82 32.12 32.26 32.15 31.79 30.94 30.10 29.61 29.47 29.75 29.93 29.97 29.99 30.07 30.27 30.43 30.41 30.45 30.63
MSLP
1021.42 1021.34 1021.30 1021.22 1021.18 1021.18 1021.18 1021.18 1021.18 1021.14 1021.10 1021.06 1021.02 1021.06 1021.06 1021.06 1021.06 1021.06 1021.10 1021.10 1021.10 1021.14 1021.18 1021.18 1021.18 1021.18 1021.14 1021.10 1021.06 1021.02 1020.94 1020.90 1020.90 1020.86 1020.78 1020.74 1020.70 1020.66 1020.62 1020.54 1020.46 1020.38 1020.26 1020.22 1020.14 1020.06 1020.06 1019.94 1019.90 1019.90 1019.90 1019.90 1019.90 1019.94 1019.94 1019.94 1019.86 1019.78 1019.74 1019.70 1019.70 1019.66 1019.66 1019.58 1019.54 1019.46 1019.38 1019.34 1019.30
1021.66 1021.62 1021.54 1021.46 1021.38 1021.38 1021.38 1021.34 1021.34 1021.34 1021.30 1021.26 1021.22 1021.22 1021.26 1021.26 1021.26 1021.26 1021.30 1021.34 1021.34 1021.34 1021.34 1021.34 1021.34 1021.34 1021.30 1021.22 1021.18 1021.14 1021.10 1021.06 1021.02 1021.02 1020.98 1020.98 1020.94 1020.90 1020.82 1020.74 1020.70 1020.62 1020.50 1020.46 1020.34 1020.34 1020.26 1020.18 1020.14 1020.10 1020.14 1020.18 1020.14 1020.14 1020.18 1020.18 1020.10 1020.06 1019.98 1019.94 1019.90 1019.90 1019.86 1019.78 1019.78 1019.74 1019.66 1019.62 1019.62
1021.90 1021.82 1021.74 1021.66 1021.62 1021.54 1021.50 1021.50 1021.50 1021.46 1021.46 1021.46 1021.42 1021.42 1021.42 1021.38 1021.42 1021.42 1021.46 1021.46 1021.46 1021.46 1021.46 1021.46 1021.50 1021.46 1021.42 1021.34 1021.34 1021.30 1021.26 1021.18 1021.18 1021.14 1021.10 1021.10 1021.10 1021.06 1020.94 1020.90 1020.86 1020.78 1020.70 1020.66 1020.62 1020.58 1020.50 1020.46 1020.42 1020.42 1020.42 1020.42 1020.38 1020.34 1020.34 1020.34 1020.34 1020.22 1020.18 1020.18 1020.18 1020.14 1020.10 1020.06 1020.06 1019.98 1019.90 1019.90 1019.82
1022.06 1022.02 1021.90 1021.82 1021.74 1021.70 1021.62 1021.62 1021.62 1021.62 1021.62 1021.62 1021.62 1021.62 1021.58 1021.58 1021.58 1021.58 1021.58 1021.58 1021.58 1021.58 1021.62 1021.62 1021.62 1021.62 1021.58 1021.50 1021.46 1021.42 1021.38 1021.34 1021.34 1021.30 1021.26 1021.26 1021.26 1021.18 1021.18 1021.10 1021.06 1020.98 1020.90 1020.90 1020.86 1020.78 1020.74 1020.66 1020.66 1020.70 1020.74 1020.70 1020.66 1020.62 1020.58 1020.54 1020.46 1020.42 1020.38 1020.38 1020.38 1020.34 1020.30 1020.30 1020.30 1020.22 1020.18 1020.10 1020.06
1022.22 1022.18 1022.10 1022.06 1021.90 1021.90 1021.86 1021.82 1021.78 1021.78 1021.78 1021.78 1021.74 1021.74 1021.74 1021.74 1021.74 1021.74 1021.70 1021.70 1021.70 1021.74 1021.74 1021.74 1021.74 1021.74 1021.66 1021.62 1021.58 1021.54 1021.50 1021.50 1021.46 1021.42 1021.46 1021.46 1021.42 1021.38 1021.34 1021.34 1021.22 1021.18 1021.14 1021.14 1021.06 1021.02 1020.90 1020.86 1020.86 1020.90 1020.94 1020.94 1020.90 1020.90 1020.82 1020.78 1020.66 1020.62 1020.58 1020.62 1020.62 1020.62 1020.58 1020.54 1020.46 1020.46 1020.42 1020.34 1020.26
1022.38 1022.34 1022.26 1022.18 1022.10 1022.06 1022.02 1021.98 1021.94 1021.94 1021.94 1021.90 1021.86 1021.82 1021.82 1021.82 1021.78 1021.78 1021.78 1021.78 1021.82 1021.86 1021.86 1021.86 1021.82 1021.78 1021.78 1021.74 1021.70 1021.66 1021.66 1021.66 1021.66 1021.66 1021.62 1021.62 1021.62 1021.58 1021.54 1021.50 1021.46 1021.38 1021.30 1021.30 1021.22 1021.14 1021.06 1021.02 1021.02 1021.10 1021.18 1021.18 1021.18 1021.14 1021.06 1020.94 1020.86 1020.82 1020.82 1020.82 1020.86 1020.90 1020.86 1020.78 1020.78 1020.74 1020.66 1020.62 1020.54
1022.62 1022.58 1022.46 1022.38 1022.30 1022.22 1022.18 1022.14 1022.10 1022.06 1022.06 1022.02 1021.94 1021.90 1021.90 1021.90 1021.90 1021.90 1021.90 1021.90 1021.94 1021.98 1021.98 1021.94 1021.94 1021.94 1021.94 1021.90 1021.90 1021.90 1021.86 1021.86 1021.86 1021.86 1021.82 1021.82 1021.86 1021.82 1021.78 1021.74 1021.66 1021.58 1021.46 1021.42 1021.34 1021.30 1021.22 1021.18 1021.22 1021.30 1021.34 1021.34 1021.34 1021.34 1021.30 1021.18 1021.10 1021.06 1021.02 1021.02 1021.06 1021.10 1021.14 1021.10 1021.06 1020.98 1020.94 1020.90 1020.82
1022.86 1022.78 1022.70 1022.62 1022.46 1022.42 1022.34 1022.30 1022.22 1022.14 1022.10 1022.06 1022.06 1022.06 1022.06 1022.02 1021.98 1021.98 1022.02 1022.06 1022.06 1022.10 1022.14 1022.10 1022.10 1022.14 1022.14 1022.14 1022.18 1022.14 1022.14 1022.14 1022.10 1022.06 1022.06 1022.06 1022.06 1022.06 1022.02 1021.98 1021.90 1021.82 1021.74 1021.66 1021.58 1021.50 1021.46 1021.38 1021.46 1021.46 1021.54 1021.58 1021.62 1021.58 1021.54 1021.50 1021.38 1021.30 1021.26 1021.26 1021.30 1021.34 1021.38 1021.34 1021.30 1021.22 1021.18 1021.14 1021.06
1023.02 1022.94 1022.86 1022.78 1022.66 1022.58 1022.50 1022.42 1022.34 1022.30 1022.22 1022.18 1022.18 1022.18 1022.18 1022.18 1022.18 1022.14 1022.14 1022.18 1022.22 1022.26 1022.30 1022.30 1022.34 1022.30 1022.34 1022.34 1022.34 1022.38 1022.38 1022.38 1022.34 1022.34 1022.34 1022.34 1022.30 1022.26 1022.18 1022.14 1022.06 1022.02 1021.94 1021.90 1021.82 1021.74 1021.66 1021.62 1021.70 1021.74 1021.74 1021.78 1021.86 1021.90 1021.86 1021.78 1021.70 1021.62 1021.58 1021.54 1021.58 1021.54 1021.54 1021.58 1021.46 1021.46 1021.42 1021.34 1021.30
1023.18 1023.06 1022.98 1022.90 1022.82 1022.74 1022.66 1022.58 1022.50 1022.46 1022.42 1022.38 1022.34 1022.34 1022.34 1022.34 1022.34 1022.30 1022.30 1022.34 1022.38 1022.42 1022.42 1022.46 1022.46 1022.46 1022.46 1022.50 1022.54 1022.58 1022.62 1022.62 1022.62 1022.62 1022.54 1022.50 1022.46 1022.42 1022.34 1022.34 1022.26 1022.18 1022.14 1022.06 1022.06 1021.98 1021.90 1021.90 1021.98 1022.06 1022.10 1022.10 1022.14 1022.14 1022.14 1022.06 1021.98 1021.90 1021.90 1021.90 1021.90 1021.86 1021.78 1021.74 1021.74 1021.74 1021.66 1021.62 1021.54
1023.34 1023.26 1023.18 1023.06 1023.02 1022.94 1022.86 1022.78 1022.78 1022.70 1022.62 1022.62 1022.62 1022.62 1022.58 1022.54 1022.50 1022.46 1022.50 1022.54 1022.54 1022.54 1022.62 1022.62 1022.62 1022.62 1022.66 1022.70 1022.74 1022.74 1022.78 1022.78 1022.78 1022.78 1022.74 1022.70 1022.66 1022.62 1022.62 1022.58 1022.50 1022.46 1022.42 1022.38 1022.34 1022.26 1022.22 1022.22 1022.26 1022.30 1022.30 1022.34 1022.34 1022.38 1022.38 1022.34 1022.30 1022.26 1022.22 1022.22 1022.18 1022.18 1022.10 1022.10 1022.06 1021.98 1021.90 1021.90 1021.82
1023.50 1023.46 1023.34 1023.26 1023.22 1023.14 1023.06 1023.02 1022.98 1022.94 1022.90 1022.86 1022.82 1022.78 1022.78 1022.74 1022.74 1022.70 1022.70 1022.70 1022.70 1022.78 1022.86 1022.86 1022.86 1022.86 1022.86 1022.90 1022.90 1022.94 1022.94 1022.94 1022.94 1022.90 1022.90 1022.90 1022.86 1022.86 1022.82 1022.82 1022.78 1022.74 1022.70 1022.70 1022.66 1022.58 1022.54 1022.54 1022.50 1022.46 1022.50 1022.54 1022.58 1022.62 1022.66 1022.62 1022.58 1022.54 1022.50 1022.50 1022.46 1022.42 1022.38 1022.34 1022.30 1022.26 1022.22 1022.18 1022.06
1023.70 1023.62 1023.54 1023.46 1023.42 1023.34 1023.26 1023.18 1023.18 1023.14 1023.10 1023.06 1023.02 1022.98 1022.94 1022.90 1022.90 1022.90 1022.86 1022.86 1022.90 1022.98 1023.06 1023.06 1023.06 1023.06 1023.06 1023.06 1023.14 1023.18 1023.14 1023.10 1023.06 1023.06 1023.02 1023.02 1022.98 1022.98 1022.98 1022.98 1022.98 1022.94 1022.90 1022.90 1022.90 1022.90 1022.82 1022.82 1022.78 1022.74 1022.78 1022.82 1022.86 1022.90 1022.90 1022.90 1022.86 1022.78 1022.78 1022.74 1022.70 1022.70 1022.66 1022.62 1022.58 1022.50 1022.46 1022.38 1022.30
1023.82 1023.74 1023.70 1023.62 1023.54 1023.46 1023.42 1023.34 1023.34 1023.30 1023.22 1023.18 1023.18 1023.14 1023.10 1023.10 1023.06 1023.06 1023.06 1023.06 1023.10 1023.14 1023.18 1023.18 1023.18 1023.22 1023.22 1023.22 1023.26 1023.30 1023.30 1023.30 1023.26 1023.22 1023.18 1023.18 1023.18 1023.14 1023.14 1023.18 1023.18 1023.18 1023.18 1023.18 1023.18 1023.18 1023.10 1023.06 1023.06 1023.06 1023.06 1023.06 1023.14 1023.18 1023.18 1023.10 1023.10 1023.06 1023.06 1023.06 1022.98 1022.98 1022.94 1022.90 1022.82 1022.74 1022.62 1022.54 1022.46
1023.90 1023.86 1023.78 1023.74 1023.66 1023.62 1023.58 1023.50 1023.46 1023.38 1023.34 1023.30 1023.26 1023.26 1023.26 1023.26 1023.26 1023.22 1023.18 1023.22 1023.18 1023.18 1023.18 1023.22 1023.26 1023.34 1023.34 1023.38 1023.38 1023.42 1023.42 1023.42 1023.42 1023.38 1023.34 1023.30 1023.34 1023.30 1023.34 1023.34 1023.34 1023.38 1023.42 1023.46 1023.46 1023.46 1023.38 1023.34 1023.34 1023.34 1023.34 1023.34 1023.34 1023.42 1023.42 1023.38 1023.38 1023.38 1023.34 1023.34 1023.26 1023.22 1023.18 1023.10 1023.02 1022.90 1022.82 1022.74 1022.66
1023.94 1023.90 1023.86 1023.86 1023.78 1023.74 1023.70 1023.66 1023.62 1023.54 1023.46 1023.46 1023.42 1023.38 1023.34 1023.34 1023.34 1023.34 1023.34 1023.34 1023.26 1023.26 1023.26 1023.26 1023.30 1023.34 1023.42 1023.46 1023.50 1023.54 1023.54 1023.58 1023.54 1023.50 1023.46 1023.46 1023.46 1023.46 1023.50 1023.54 1023.58 1023.62 1023.62 1023.66 1023.70 1023.70 1023.66 1023.66 1023.62 1023.62 1023.62 1023.62 1023.62 1023.66 1023.66 1023.66 1023.66 1023.62 1023.58 1023.54 1023.46 1023.46 1023.38 1023.30 1023.22 1023.14 1023.06 1022.98 1022.90
1024.06 1024.02 1023.94 1023.90 1023.90 1023.90 1023.86 1023.86 1023.82 1023.78 1023.78 1023.74 1023.66 1023.58 1023.54 1023.54 1023.50 1023.50 1023.46 1023.46 1023.42 1023.42 1023.46 1023.46 1023.46 1023.50 1023.54 1023.62 1023.62 1023.62 1023.62 1023.66 1023.66 1023.66 1023.66 1023.62 1023.62 1023.66 1023.70 1023.74 1023.74 1023.82 1023.86 1023.90 1023.90 1023.90 1023.90 1023.90 1023.90 1023.90 1023.86 1023.86 1023.90 1023.90 1023.90 1023.90 1023.86 1023.86 1023.78 1023.74 1023.70 1023.62 1023.58 1023.50 1023.46 1023.34 1023.22 1023.14 1023.06
1024.18 1024.18 1024.18 1024.14 1024.10 1024.06 1024.06 1024.06 1024.06 1024.06 1024.06 1024.02 1023.90 1023.86 1023.82 1023.78 1023.74 1023.74 1023.74 1023.70 1023.70 1023.66 1023.66 1023.66 1023.70 1023.74 1023.74 1023.74 1023.74 1023.74 1023.74 1023.74 1023.74 1023.78 1023.82 1023.78 1023.78 1023.82 1023.90 1023.90 1023.94 1024.02 1024.06 1024.14 1024.14 1024.18 1024.14 1024.10 1024.10 1024.06 1024.06 1024.06 1024.06 1024.06 1024.06 1024.06 1024.06 1024.02 1023.98 1023.94 1023.90 1023.82 1023.74 1023.70 1023.62 1023.50 1023.42 1023.30 1023.22
1024.38 1024.38 1024.38 1024.34 1024.34 1024.30 1024.22 1024.22 1024.22 1024.22 1024.22 1024.18 1024.18 1024.14 1024.10 1024.06 1024.02 1023.98 1023.98 1023.98 1023.94 1023.90 1023.90 1023.86 1023.90 1023.90 1023.90 1023.90 1023.90 1023.86 1023.86 1023.86 1023.90 1023.90 1023.94 1023.94 1023.94 1024.02 1024.06 1024.10 1024.14 1024.18 1024.30 1024.34 1024.34 1024.34 1024.34 1024.30 1024.22 1024.22 1024.22 1024.22 1024.22 1024.22 1024.22 1024.18 1024.18 1024.18 1024.14 1024.10 1024.06 1024.02 1023.94 1023.90 1023.78 1023.70 1023.62 1023.50 1023.42
1024.58 1024.62 1024.62 1024.58 1024.54 1024.46 1024.38 1024.38 1024.34 1024.34 1024.34 1024.34 1024.30 1024.26 1024.22 1024.22 1024.22 1024.18 1024.18 1024.18 1024.18 1024.18 1024.14 1024.06 1024.06 1024.06 1024.06 1024.06 1023.98 1023.94 1023.90 1023.94 1023.98 1024.02 1024.06 1024.06 1024.10 1024.18 1024.18 1024.26 1024.34 1024.38 1024.46 1024.50 1024.50 1024.50 1024.46 1024.42 1024.38 1024.38 1024.38 1024.38 1024.34 1024.34 1024.34 1024.34 1024.34 1024.34 1024.26 1024.22 1024.18 1024.14 1024.10 1024.02 1023.94 1023.90 1023.82 1023.74 1023.62
1024.74 1024.78 1024.78 1024.78 1024.74 1024.62 1024.58 1024.54 1024.50 1024.46 1024.46 1024.42 1024.38 1024.38 1024.38 1024.34 1024.34 1024.34 1024.38 1024.38 1024.38 1024.34 1024.30 1024.26 1024.22 1024.18 1024.18 1024.14 1024.06 1024.02 1023.98 1023.94 1023.98 1024.02 1024.06 1024.14 1024.22 1024.30 1024.34 1024.42 1024.46 1024.54 1024.62 1024.66 1024.66 1024.62 1024.58 1024.54 1024.50 1024.50 1024.54 1024.54 1024.50 1024.50 1024.50 1024.46 1024.46 1024.42 1024.38 1024.34 1024.34 1024.30 1024.22 1024.14 1024.14 1024.06 1023.98 1023.90 1023.82
1024.90 1024.94 1024.98 1024.94 1024.86 1024.78 1024.78 1024.70 1024.62 1024.62 1024.58 1024.54 1024.54 1024.54 1024.50 1024.50 1024.50 1024.54 1024.58 1024.54 1024.46 1024.46 1024.42 1024.42 1024.38 1024.38 1024.34 1024.30 1024.22 1024.18 1024.10 1024.06 1024.06 1024.06 1024.06 1024.10 1024.22 1024.34 1024.46 1024.50 1024.58 1024.66 1024.78 1024.78 1024.78 1024.78 1024.74 1024.70 1024.70 1024.66 1024.66 1024.66 1024.66 1024.66 1024.62 1024.62 1024.58 1024.50 1024.46 1024.42 1024.42 1024.38 1024.34 1024.26 1024.22 1024.18 1024.14 1024.06 1023.98
1025.06 1025.10 1025.14 1025.10 1025.02 1024.90 1024.86 1024.82 1024.78 1024.74 1024.70 1024.70 1024.70 1024.66 1024.70 1024.70 1024.74 1024.74 1024.74 1024.70 1024.62 1024.62 1024.58 1024.54 1024.54 1024.54 1024.54 1024.46 1024.46 1024.42 1024.34 1024.26 1024.22 1024.18 1024.18 1024.14 1024.14 1024.18 1024.26 1024.34 1024.42 1024.50 1024.58 1024.62 1024.70 1024.74 1024.74 1024.74 1024.74 1024.74 1024.78 1024.74 1024.78 1024.74 1024.66 1024.62 1024.58 1024.50 1024.46 1024.42 1024.38 1024.38 1024.38 1024.34 1024.30 1024.22 1024.18 1024.18 1024.10
1025.18 1025.22 1025.22 1025.22 1025.18 1025.06 1024.98 1024.90 1024.86 1024.86 1024.86 1024.86 1024.90 1024.86 1024.86 1024.90 1024.90 1024.90 1024.90 1024.86 1024.78 1024.78 1024.74 1024.74 1024.74 1024.74 1024.70 1024.66 1024.62 1024.58 1024.54 1024.46 1024.42 1024.34 1024.34 1024.26 1024.22 1024.18 1024.18 1024.22 1024.34 1024.46 1024.50 1024.58 1024.66 1024.70 1024.70 1024.74 1024.74 1024.74 1024.78 1024.78 1024.78 1024.74 1024.70 1024.62 1024.58 1024.50 1024.46 1024.42 1024.38 1024.38 1024.38 1024.38 1024.34 1024.34 1024.34 1024.26 1024.18
1025.34 1025.34 1025.34 1025.34 1025.26 1025.18 1025.10 1025.06 1025.02 1025.02 1025.06 1025.06 1025.02 1025.02 1025.02 1025.02 1025.02 1025.02 1024.98 1024.94 1024.90 1024.90 1024.90 1024.86 1024.82 1024.78 1024.78 1024.78 1024.74 1024.74 1024.74 1024.70 1024.62 1024.62 1024.54 1024.46 1024.42 1024.34 1024.34 1024.34 1024.42 1024.46 1024.54 1024.62 1024.74 1024.78 1024.82 1024.86 1024.82 1024.82 1024.82 1024.82 1024.82 1024.78 1024.78 1024.74 1024.70 1024.62 1024.54 1024.50 1024.46 1024.38 1024.34 1024.34 1024.38 1024.38 1024.34 1024.34 1024.34
1025.42 1025.42 1025.42 1025.42 1025.38 1025.30 1025.22 1025.18 1025.22 1025.22 1025.22 1025.18 1025.18 1025.18 1025.14 1025.14 1025.14 1025.10 1025.06 1025.06 1025.06 1024.98 1024.94 1024.94 1024.90 1024.86 1024.82 1024.86 1024.82 1024.82 1024.82 1024.82 1024.82 1024.78 1024.74 1024.70 1024.62 1024.58 1024.50 1024.46 1024.50 1024.58 1024.66 1024.74 1024.78 1024.82 1024.90 1024.94 1024.94 1024.94 1024.90 1024.90 1024.86 1024.82 1024.78 1024.78 1024.78 1024.78 1024.70 1024.62 1024.58 1024.50 1024.46 1024.38 1024.38 1024.42 1024.38 1024.38 1024.34
1025.54 1025.54 1025.54 1025.50 1025.50 1025.46 1025.38 1025.42 1025.42 1025.38 1025.38 1025.34 1025.34 1025.34 1025.30 1025.26 1025.26 1025.22 1025.18 1025.14 1025.18 1025.14 1025.06 1025.02 1024.98 1024.94 1024.90 1024.90 1024.90 1024.90 1024.86 1024.86 1024.90 1024.90 1024.90 1024.86 1024.86 1024.78 1024.66 1024.62 1024.62 1024.70 1024.78 1024.82 1024.86 1024.90 1024.94 1025.02 1025.02 1025.06 1025.02 1024.98 1024.94 1024.90 1024.90 1024.82 1024.86 1024.86 1024.78 1024.78 1024.70 1024.66 1024.62 1024.50 1024.46 1024.46 1024.46 1024.46 1024.42
1025.62 1025.62 1025.62 1025.62 1025.62 1025.58 1025.58 1025.62 1025.58 1025.54 1025.54 1025.54 1025.46 1025.46 1025.42 1025.38 1025.34 1025.30 1025.26 1025.26 1025.22 1025.18 1025.18 1025.18 1025.10 1025.06 1025.02 1025.02 1025.02 1024.98 1024.94 1024.90 1024.86 1024.86 1024.90 1024.94 1024.98 1024.94 1024.90 1024.78 1024.78 1024.78 1024.90 1024.94 1024.94 1024.98 1025.02 1025.06 1025.06 1025.10 1025.10 1025.06 1025.02 1025.02 1024.98 1024.94 1024.90 1024.90 1024.86 1024.86 1024.82 1024.78 1024.78 1024.66 1024.62 1024.58 1024.54 1024.50 1024.46
1025.74 1025.74 1025.74 1025.74 1025.70 1025.70 1025.70 1025.70 1025.70 1025.66 1025.62 1025.62 1025.62 1025.58 1025.50 1025.46 1025.42 1025.38 1025.34 1025.34 1025.34 1025.30 1025.22 1025.22 1025.22 1025.18 1025.14 1025.14 1025.10 1025.06 1025.06 1024.98 1024.94 1024.90 1024.90 1024.94 1024.98 1025.06 1025.02 1024.94 1024.86 1024.86 1024.90 1024.94 1025.02 1025.06 1025.06 1025.10 1025.14 1025.14 1025.14 1025.10 1025.06 1025.06 1025.06 1025.06 1024.98 1024.94 1024.90 1024.90 1024.90 1024.90 1024.86 1024.86 1024.82 1024.78 1024.74 1024.66 1024.62
1025.86 1025.82 1025.82 1025.78 1025.78 1025.78 1025.78 1025.78 1025.78 1025.78 1025.74 1025.74 1025.70 1025.62 1025.58 1025.58 1025.54 1025.50 1025.46 1025.46 1025.42 1025.38 1025.38 1025.34 1025.34 1025.30 1025.30 1025.26 1025.18 1025.18 1025.10 1025.06 1025.06 1025.02 1025.02 1025.02 1025.02 1025.02 1025.06 1025.06 1024.98 1024.90 1024.90 1024.94 1025.02 1025.06 1025.10 1025.14 1025.18 1025.22 1025.22 1025.18 1025.14 1025.14 1025.14 1025.10 1025.10 1025.06 1025.06 1025.06 1025.06 1025.06 1025.06 1025.06 1025.02 1024.94 1024.90 1024.86 1024.78
1025.90 1025.90 1025.90 1025.86 1025.86 1025.86 1025.86 1025.90 1025.90 1025.90 1025.82 1025.78 1025.74 1025.70 1025.66 1025.62 1025.62 1025.62 1025.62 1025.58 1025.58 1025.58 1025.54 1025.46 1025.46 1025.42 1025.38 1025.34 1025.34 1025.26 1025.22 1025.18 1025.18 1025.18 1025.14 1025.06 1025.06 1025.06 1025.06 1025.06 1025.02 1024.98 1024.94 1024.98 1025.02 1025.06 1025.18 1025.18 1025.22 1025.26 1025.30 1025.26 1025.18 1025.18 1025.18 1025.22 1025.22 1025.22 1025.22 1025.22 1025.22 1025.22 1025.18 1025.18 1025.14 1025.14 1025.10 1025.06 1024.98
1025.98 1025.94 1025.90 1025.90 1025.90 1025.90 1025.90 1025.94 1025.94 1025.90 1025.86 1025.78 1025.74 1025.74 1025.74 1025.70 1025.74 1025.74 1025.74 1025.70 1025.66 1025.62 1025.62 1025.58 1025.54 1025.50 1025.46 1025.46 1025.42 1025.38 1025.34 1025.34 1025.34 1025.30 1025.26 1025.18 1025.10 1025.06 1025.10 1025.06 1025.06 1025.06 1025.02 1025.02 1025.06 1025.18 1025.22 1025.26 1025.34 1025.34 1025.38 1025.38 1025.34 1025.34 1025.34 1025.34 1025.34 1025.34 1025.34 1025.38 1025.38 1025.38 1025.38 1025.34 1025.34 1025.34 1025.30 1025.30 1025.22
1025.98 1025.94 1025.90 1025.90 1025.90 1025.90 1025.94 1025.98 1025.94 1025.90 1025.86 1025.82 1025.78 1025.78 1025.78 1025.82 1025.82 1025.86 1025.86 1025.82 1025.78 1025.74 1025.70 1025.66 1025.66 1025.62 1025.58 1025.54 1025.54 1025.50 1025.46 1025.46 1025.46 1025.42 1025.34 1025.30 1025.18 1025.14 1025.14 1025.18 1025.18 1025.14 1025.06 1025.06 1025.14 1025.18 1025.30 1025.34 1025.42 1025.46 1025.46 1025.46 1025.42 1025.42 1025.42 1025.46 1025.46 1025.46 1025.46 1025.46 1025.50 1025.54 1025.58 1025.62 1025.54 1025.54 1025.54 1025.50 1025.46
1025.94 1025.90 1025.90 1025.90 1025.94 1025.94 1025.98 1025.98 1025.94 1025.90 1025.86 1025.86 1025.86 1025.86 1025.90 1025.90 1025.90 1025.90 1025.90 1025.90 1025.90 1025.90 1025.90 1025.86 1025.86 1025.82 1025.74 1025.70 1025.66 1025.62 1025.62 1025.62 1025.58 1025.50 1025.42 1025.34 1025.22 1025.18 1025.22 1025.26 1025.30 1025.22 1025.18 1025.10 1025.14 1025.22 1025.34 1025.42 1025.50 1025.54 1025.54 1025.54 1025.54 1025.50 1025.54 1025.54 1025.58 1025.58 1025.62 1025.62 1025.62 1025.66 1025.70 1025.74 1025.74 1025.74 1025.74 1025.70 1025.62
1025.90 1025.90 1025.90 1025.90 1025.94 1025.94 1025.98 1025.98 1025.90 1025.90 1025.86 1025.86 1025.90 1025.94 1025.94 1025.94 1025.94 1025.94 1025.98 1025.98 1025.98 1025.98 1026.02 1026.02 1025.98 1025.98 1025.94 1025.90 1025.82 1025.78 1025.74 1025.74 1025.62 1025.58 1025.50 1025.42 1025.30 1025.26 1025.30 1025.34 1025.34 1025.34 1025.30 1025.18 1025.22 1025.34 1025.42 1025.50 1025.62 1025.62 1025.66 1025.62 1025.62 1025.62 1025.62 1025.62 1025.66 1025.70 1025.74 1025.74 1025.74 1025.74 1025.82 1025.86 1025.86 1025.86 1025.86 1025.82 1025.74
1025.94 1025.90 1025.86 1025.90 1025.94 1025.94 1025.94 1025.94 1025.90 1025.90 1025.90 1025.90 1025.94 1026.02 1026.02 1026.06 1026.06 1026.06 1026.06 1026.06 1026.02 1026.02 1026.06 1026.06 1025.98 1025.94 1025.94 1025.94 1025.94 1025.90 1025.86 1025.82 1025.74 1025.70 1025.62 1025.54 1025.42 1025.34 1025.34 1025.34 1025.42 1025.42 1025.38 1025.34 1025.34 1025.42 1025.54 1025.62 1025.70 1025.74 1025.74 1025.70 1025.66 1025.70 1025.70 1025.70 1025.74 1025.74 1025.82 1025.82 1025.82 1025.86 1025.90 1025.90 1025.90 1025.90 1025.90 1025.90 1025.86
1025.98 1025.90 1025.86 1025.90 1025.90 1025.94 1025.94 1025.90 1025.90 1025.90 1025.90 1025.94 1025.98 1026.02 1026.06 1026.10 1026.14 1026.14 1026.14 1026.06 1026.06 1026.06 1026.06 1026.06 1026.06 1026.06 1026.06 1026.06 1026.02 1026.02 1026.02 1025.90 1025.82 1025.74 1025.74 1025.62 1025.58 1025.46 1025.46 1025.46 1025.46 1025.46 1025.50 1025.46 1025.42 1025.46 1025.62 1025.70 1025.74 1025.74 1025.74 1025.70 1025.74 1025.74 1025.74 1025.74 1025.74 1025.82 1025.90 1025.90 1025.90 1025.90 1025.90 1025.90 1025.94 1025.94 1025.94 1025.94 1025.94
1026.02 1025.94 1025.90 1025.90 1025.90 1025.94 1025.90 1025.90 1025.90 1025.90 1025.90 1025.94 1026.02 1026.06 1026.10 1026.18 1026.18 1026.22 1026.18 1026.14 1026.06 1026.06 1026.06 1026.06 1026.10 1026.14 1026.14 1026.14 1026.10 1026.10 1026.10 1026.06 1025.94 1025.90 1025.82 1025.74 1025.70 1025.62 1025.58 1025.58 1025.58 1025.62 1025.62 1025.58 1025.50 1025.54 1025.62 1025.74 1025.74 1025.78 1025.74 1025.74 1025.74 1025.74 1025.78 1025.82 1025.82 1025.86 1025.90 1025.94 1025.94 1025.94 1025.94 1025.94 1025.94 1025.94 1025.94 1025.98 1026.02
1026.06 1026.02 1025.94 1025.90 1025.90 1025.94 1025.90 1025.90 1025.90 1025.90 1025.98 1026.06 1026.10 1026.18 1026.18 1026.18 1026.22 1026.30 1026.30 1026.26 1026.18 1026.14 1026.14 1026.18 1026.18 1026.22 1026.26 1026.22 1026.18 1026.14 1026.18 1026.18 1026.10 1026.02 1025.90 1025.90 1025.82 1025.78 1025.74 1025.70 1025.70 1025.70 1025.66 1025.62 1025.62 1025.62 1025.66 1025.78 1025.82 1025.82 1025.82 1025.82 1025.78 1025.78 1025.86 1025.94 1025.94 1025.90 1025.90 1025.94 1025.90 1025.90 1025.90 1025.94 1025.94 1025.90 1025.90 1025.90 1025.98
1026.06 1026.06 1026.02 1025.94 1025.90 1025.94 1025.94 1025.94 1025.94 1025.98 1026.06 1026.10 1026.18 1026.18 1026.22 1026.26 1026.30 1026.34 1026.42 1026.42 1026.34 1026.26 1026.26 1026.30 1026.34 1026.34 1026.34 1026.26 1026.18 1026.18 1026.18 1026.18 1026.18 1026.14 1026.10 1026.06 1026.06 1026.02 1025.94 1025.86 1025.78 1025.74 1025.74 1025.74 1025.70 1025.74 1025.74 1025.86 1025.90 1025.90 1025.90 1025.90 1025.90 1025.82 1025.90 1025.98 1025.94 1025.90 1025.90 1025.90 1025.86 1025.86 1025.82 1025.86 1025.90 1025.90 1025.86 1025.78 1025.78
1026.10 1026.14 1026.10 1026.06 1026.02 1025.98 1025.98 1026.02 1026.06 1026.10 1026.14 1026.18 1026.18 1026.26 1026.30 1026.34 1026.38 1026.42 1026.46 1026.42 1026.38 1026.34 1026.34 1026.42 1026.42 1026.38 1026.34 1026.30 1026.26 1026.18 1026.18 1026.18 1026.18 1026.22 1026.26 1026.22 1026.18 1026.14 1026.06 1025.98 1025.90 1025.86 1025.82 1025.78 1025.82 1025.86 1025.90 1025.90 1025.98 1026.02 1026.02 1026.02 1025.98 1025.90 1025.90 1025.90 1025.90 1025.90 1025.86 1025.82 1025.78 1025.74 1025.74 1025.78 1025.78 1025.78 1025.74 1025.74 1025.66
Wind_Speed
7 6 6 5 5 5 5 5 5 5 5 5 5 5 5 5 5 5 5 5 5 4 5 5 5 5 6 8 8 8 8 9 9 10 10 10 10 9 9 9 8 8 8 8 7 7 7 7 6 5 5 5 5 5 5 5 5 6 6 6 5 6 7 7 7 8 8 8 6
8 7 7 6 6 5 5 5 5 5 5 5 5 5 5 5 5 5 5 5 5 4 5 5 5 6 7 8 8 8 8 8 9 9 10 10 10 9 9 8 9 9 9 8 8 7 6 7 6 5 5 5 5 5 5 5 5 6 7 7 6 5 6 6 7 7 7 7 6
8 7 7 7 6 6 5 5 5 6 6 5 5 5 5 5 5 5 5 5 5 5 5 5 5 7 8 8 8 8 8 8 9 9 9 9 10 10 9 9 9 10 9 9 8 7 7 7 6 6 5 5 6 6 5 6 6 6 6 7 5 5 5 5 6 6 6 5 6
8 7 7 7 8 7 7 5 6 6 6 5 5 5 5 5 5 5 5 6 6 6 6 5 5 6 7 7 8 8 9 9 9 9 9 9 10 10 10 10 10 10 10 9 9 8 8 7 6 6 6 6 7 6 5 5 6 6 5 6 5 5 5 5 5 5 5 5 5
7 7 7 7 8 8 7 7 7 7 6 5 5 5 5 5 5 5 5 6 6 6 6 7 6 6 6 8 9 9 9 10 10 9 9 9 10 10 10 10 10 10 9 9 9 8 8 7 6 6 6 6 6 6 6 6 6 6 5 5 5 5 5 5 5 5 5 5 5
7 7 7 7 8 8 7 7 8 7 6 5 6 6 5 5 5 5 6 6 7 7 8 8 7 7 8 9 9 9 9 10 9 9 9 10 10 10 11 11 10 10 9 9 9 9 8 7 6 6 6 6 6 7 7 7 6 6 6 6 6 6 6 6 5 6 6 7 7
7 8 8 8 8 8 7 7 7 7 7 7 8 8 7 6 7 7 8 7 7 7 7 7 8 8 8 9 9 9 9 9 9 10 10 10 10 10 10 10 10 10 10 10 9 9 8 8 6 6 6 6 6 7 8 8 7 7 7 7 6 6 6 7 6 6 7 9 9
7 7 7 7 8 8 8 8 7 7 7 7 8 9 9 9 9 9 9 8 7 7 7 7 9 9 10 9 9 9 9 10 9 10 10 10 10 10 10 10 10 10 10 10 10 9 9 7 6 6 6 6 6 7 8 9 9 8 8 8 7 6 6 6 6 7 8 10 10
6 6 7 7 7 7 8 8 8 8 8 8 9 9 9 9 9 9 9 8 8 8 8 8 10 10 11 10 10 9 9 9 9 9 9 9 10 10 9 9 10 10 10 9 10 10 9 8 7 7 7 6 7 7 9 10 10 9 9 8 8 7 7 7 8 8 9 10 11
6 6 6 7 7 7 7 8 8 9 9 9 10 10 9 9 9 9 8 7 8 8 8 9 10 10 11 11 10 9 9 8 9 9 9 9 10 10 10 9 10 10 10 9 9 10 10 8 8 8 8 8 9 9 10 10 10 10 9 7 8 9 9 9 9 10 10 10 10
6 6 6 6 7 7 7 8 8 8 9 9 9 9 9 9 9 9 8 8 9 9 10 9 10 10 10 10 10 9 9 8 8 9 9 10 10 11 11 10 10 10 10 9 9 9 8 8 9 9 10 9 9 10 10 10 10 10 10 8 9 9 10 10 9 9 9 9 10
6 6 6 6 6 6 7 7 7 7 8 8 8 8 8 8 9 9 9 9 10 10 9 9 9 9 9 9 9 9 9 9 9 9 9 10 11 11 11 11 11 11 11 10 9 8 8 9 10 11 11 10 9 8 9 10 10 10 10 10 10 10 10 10 9 8 8 9 10
6 6 6 6 6 6 6 6 6 6 7 8 7 7 7 8 8 9 9 10 9 9 8 8 9 9 9 9 9 9 9 9 10 10 10 10 11 11 11 11 11 11 11 10 9 9 9 10 11 11 11 11 9 9 9 10 10 10 10 10 10 10 10 10 9 9 9 10 10
6 6 6 5 5 5 5 5 5 5 6 7 7 7 7 7 7 8 8 8 8 8 8 8 8 8 8 9 9 9 10 10 10 11 11 11 11 11 11 11 11 11 10 10 10 10 10 10 11 11 11 11 10 10 10 10 9 9 9 9 9 9 9 9 9 9 10 10 10
6 6 6 5 5 5 5 5 4 5 6 6 6 6 6 6 6 7 7 7 7 7 7 7 7 8 8 9 9 9 10 10 10 11 11 11 11 11 11 11 11 11 10 10 10 10 11 11 11 11 11 11 11 10 10 10 9 9 9 9 9 9 9 9 9 9 9 10 10
6 6 6 6 5 5 5 5 4 4 5 5 5 6 6 6 6 6 7 7 7 7 7 7 7 7 8 8 9 9 9 10 10 11 11 11 12 12 12 11 11 11 11 10 10 10 10 10 10 10 11 10 10 10 10 9 9 9 9 9 9 9 9 9 9 9 9 10 10
6 6 6 6 6 6 6 5 5 5 5 5 5 5 5 5 5 6 7 7 6 7 7 8 7 7 7 7 7 8 8 9 9 10 10 11 12 12 12 11 11 11 11 11 10 10 10 10 9 10 10 10 9 9 9 9 9 9 9 9 9 9 9 9 9 9 9 10 10
7 7 6 6 6 6 6 6 6 5 6 6 6 6 6 6 6 6 7 7 7 7 8 8 7 7 7 7 7 7 7 8 9 9 10 11 11 11 11 11 11 11 11 10 10 10 10 10 9 9 9 9 9 9 9 9 8 8 9 9 9 9 9 9 9 8 9 9 10
6 6 6 6 6 6 6 6 6 6 6 6 6 6 6 7 7 7 7 7 7 7 8 8 8 8 8 8 7 7 7 8 8 9 10 10 11 11 11 11 11 11 10 10 10 9 9 9 9 9 9 9 8 8 8 8 8 8 8 8 8 9 9 9 9 9 9 9 9
6 6 5 5 5 5 5 6 6 6 6 6 6 7 7 7 7 7 7 7 7 7 7 7 7 7 7 8 8 7 7 7 8 8 9 9 10 10 10 11 10 10 10 9 9 9 9 9 9 9 9 9 9 8 8 8 8 8 8 8 8 8 9 9 9 9 9 9 9
5 5 5 4 4 4 5 5 5 6 6 6 7 7 7 7 7 7 7 7 7 7 7 7 7 7 7 8 8 8 7 7 7 8 8 8 9 9 9 9 10 9 9 9 9 9 9 9 9 9 9 9 8 8 8 7 7 7 8 7 8 8 9 9 9 9 9 9 9
5 4 4 4 3 4 4 4 5 5 6 6 6 6 7 7 7 7 7 6 7 7 7 8 8 8 8 8 8 8 7 7 7 7 7 8 8 8 8 8 9 8 8 8 8 8 8 8 8 8 8 8 8 7 7 7 7 7 7 8 8 8 8 9 9 9 9 9 9
4 4 3 3 3 3 4 4 5 5 5 6 6 6 6 7 6 6 6 6 6 7 7 7 7 7 7 8 8 8 8 7 8 8 8 7 7 7 8 8 8 8 8 7 7 7 7 7 7 7 7 7 7 7 7 6 6 6 7 7 8 8 8 8 8 8 8 9 9
4 3 3 3 3 3 3 4 5 5 5 5 6 6 6 6 6 6 6 6 6 6 6 5 6 6 7 7 8 8 8 8 8 8 8 8 8 8 8 8 8 8 8 7 7 7 6 6 6 6 6 6 6 6 7 7 7 7 7 7 7 8 8 8 8 8 8 9 8
3 3 3 2 2 3 3 4 4 5 5 5 5 5 5 5 5 5 5 6 6 6 6 5 5 5 6 6 7 8 8 8 8 8 8 8 8 7 7 7 7 7 7 8 10 10 9 7 6 5 5 5 6 6 6 7 7 7 7 7 7 7 7 8 8 8 8 8 8
3 3 2 2 2 3 3 4 4 4 4 4 4 4 5 4 4 5 5 5 5 5 5 5 5 5 5 6 6 7 7 7 7 7 8 8 7 7 6 6 6 7 7 9 11 12 12 11 9 7 5 5 5 5 6 6 7 7 7 7 7 7 7 7 8 8 8 8 7
2 2 2 2 2 3 3 4 4 4 4 4 4 4 4 4 4 5 5 5 5 5 5 5 5 5 5 5 6 6 6 6 7 7 7 7 7 7 6 6 6 6 7 10 12 12 12 12 11 9 7 6 5 5 6 6 6 7 7 7 7 7 7 7 8 8 8 8 7
2 2 2 2 2 3 3 4 4 4 4 4 4 4 4 4 5 5 5 5 5 4 4 4 4 4 4 4 5 6 6 6 6 7 7 8 7 7 6 5 5 7 9 11 12 12 12 11 11 10 9 7 6 6 6 6 6 6 6 6 7 7 7 7 7 7 7 8 7
2 2 3 3 3 3 3 3 4 4 4 4 4 4 4 5 5 5 5 5 5 4 4 3 3 3 3 4 4 5 5 6 6 6 7 8 8 7 6 5 6 8 10 12 12 12 11 11 11 11 10 8 6 5 5 5 5 6 6 6 6 7 7 7 7 7 7 7 7
2 3 3 3 4 4 4 3 3 3 3 3 4 4 5 5 5 5 5 5 5 4 3 3 3 3 3 4 4 4 4 5 5 6 6 7 7 7 6 6 6 7 10 12 12 12 12 11 11 11 11 10 8 6 5 5 6 6 6 6 6 7 7 7 7 7 7 7 7
3 3 3 4 4 4 4 3 3 3 4 4 4 5 5 5 5 5 5 5 4 4 4 4 4 4 4 4 4 4 4 5 5 5 5 6 6 7 7 7 7 7 9 12 12 12 12 11 11 11 11 10 8 6 6 6 6 6 6 6 7 7 7 7 7 7 8 8 7
3 3 4 4 4 4 4 4 4 4 4 4 5 5 5 5 5 5 5 4 4 4 4 5 5 5 5 4 4 4 4 4 5 5 5 5 6 7 7 8 7 7 9 11 12 12 12 11 11 11 10 9 8 7 6 6 6 6 6 7 8 8 8 7 6 7 8 8 7
3 4 4 4 4 4 4 4 4 4 4 5 5 6 6 6 5 5 4 4 4 4 5 5 5 5 5 4 4 4 4 4 4 4 4 4 5 6 7 7 6 7 8 11 12 12 12 11 10 10 9 8 7 7 6 6 5 5 6 6 7 8 8 8 7 7 7 7 6
4 4 4 4 4 4 4 4 4 4 5 5 5 6 6 5 5 5 5 4 4 4 4 5 4 4 4 4 4 4 4 3 3 4 4 4 5 6 7 6 5 6 8 10 11 12 11 11 10 9 8 7 6 6 6 6 5 5 5 6 6 7 7 7 7 6 6 5 5
4 4 5 5 4 4 4 4 4 5 5 6 6 5 5 5 5 5 5 4 4 4 4 4 4 4 4 4 4 4 4 3 3 3 4 4 5 6 7 7 6 8 9 9 10 11 11 10 9 8 7 5 5 5 5 5 5 5 5 5 5 6 6 6 6 5 5 5 5
4 4 5 5 5 5 5 5 5 5 5 6 6 5 5 5 4 4 4 5 5 5 5 4 4 4 4 4 4 4 4 3 3 3 4 4 5 5 6 7 7 9 9 8 9 10 10 9 8 7 6 4 3 3 4 4 4 4 4 4 4 5 5 5 5 5 4 4 4
4 4 5 5 5 5 5 5 5 5 5 6 5 5 5 5 4 4 4 4 4 5 5 5 5 5 5 5 4 4 4 3 3 3 4 4 4 5 6 6 7 8 9 8 8 9 9 8 8 7 5 4 3 3 3 3 3 3 3 3 3 3 3 3 4 4 4 4 5
3 4 4 5 5 5 5 5 5 5 6 5 5 5 5 4 4 3 3 3 4 4 5 5 5 5 4 4 4 4 4 4 4 4 4 4 4 4 5 6 7 7 8 8 7 8 8 7 7 6 6 4 3 3 2 2 2 2 2 2 2 2 2 2 2 3 3 4 5
3 3 4 4 5 5 5 5 5 5 6 6 5 5 5 4 4 3 3 2 3 4 5 5 5 4 4 4 4 4 4 4 4 4 4 4 4 5 5 5 6 7 8 9 8 7 7 7 7 6 6 4 3 2 2 1 1 1 1 1 1 1 1 1 2 2 3 4 5
3 3 3 4 4 5 5 5 5 5 5 5 5 5 5 4 4 3 3 2 3 4 4 5 5 4 4 4 4 4 5 5 4 4 4 4 5 5 5 4 5 6 7 9 9 7 6 6 6 6 5 4 3 2 1 1 0 1 1 1 1 1 1 1 1 2 2 3 4
4 3 3 3 4 4 5 5 5 5 5 5 5 5 4 4 4 4 4 3 4 4 4 4 4 4 4 4 4 4 5 5 5 4 4 4 4 4 4 4 4 5 6 8 8 7 5 5 5 5 4 3 3 2 1 0 0 1 1 2 2 2 2 2 2 2 2 3 3
Wind_Direction
41 43 48 51 54 56 57 56 54 54 55 59 63 63 62 63 62 59 56 53 55 56 55 53 49 47 47 46 48 49 49 49 48 47 45 42 39 37 36 37 37 38 41 43 43 44 44 46 51 54 54 51 52 51 47 41 43 48 51 51 51 50 48 47 45 44 45 47 48
43 46 50 54 57 59 60 59 57 57 57 58 62 65 66 66 66 64 61 57 56 56 57 56 51 49 49 48 48 50 51 53 52 51 49 45 41 39 39 40 41 42 42 44 44 44 45 45 49 50 48 46 47 48 46 40 42 48 51 50 49 47 46 46 42 42 44 47 47
45 47 50 54 57 60 62 63 61 61 61 60 60 62 64 65 65 64 63 61 60 60 59 59 54 52 51 51 50 50 52 52 53 53 51 48 44 43 42 43 44 45 45 46 46 46 48 47 50 49 46 42 42 43 44 43 44 48 50 49 47 46 44 44 40 40 41 46 49
46 49 53 56 59 62 64 65 64 64 63 63 63 63 65 65 65 64 64 64 62 61 60 60 58 56 54 55 56 55 55 53 54 54 53 50 48 46 45 45 47 47 48 47 48 50 52 54 54 52 48 44 44 42 40 40 45 48 51 49 47 46 45 44 41 39 40 45 50
47 50 54 57 60 62 64 65 65 66 65 65 66 67 68 68 68 69 67 65 62 61 62 62 62 59 58 58 58 58 57 55 55 54 54 52 50 49 48 48 48 49 50 49 49 50 53 58 59 56 50 45 42 40 39 42 47 50 52 51 48 45 44 43 42 41 41 42 46
48 51 54 58 61 63 65 65 66 66 67 66 67 68 69 68 70 70 69 67 65 64 63 63 62 61 59 58 57 57 57 56 56 55 55 54 52 50 49 49 49 49 51 51 51 51 53 56 59 56 51 48 45 42 41 44 50 54 56 56 52 48 45 43 44 44 44 44 45
50 51 53 56 59 63 66 67 68 69 70 69 68 69 70 71 72 72 71 70 67 64 62 61 61 61 60 58 57 57 56 56 57 56 55 55 53 51 50 49 49 49 50 50 51 52 54 56 57 56 52 49 47 44 43 46 51 56 58 59 56 52 49 45 47 48 50 50 50
52 53 54 56 59 63 66 68 70 71 71 70 70 70 71 72 73 73 73 71 68 66 64 63 63 63 63 61 59 57 56 56 56 56 56 56 54 54 53 52 52 51 51 50 51 53 55 57 57 55 53 50 48 46 45 46 51 55 58 59 58 56 54 52 52 53 54 54 53
51 54 57 59 61 63 66 69 70 71 72 72 72 72 72 72 73 73 74 73 72 71 70 68 67 67 67 66 63 61 58 56 56 57 57 57 56 55 53 53 52 52 52 51 53 54 56 59 57 55 53 52 50 48 47 48 51 54 56 57 55 55 55 55 55 55 55 55 55
48 51 54 58 59 61 64 67 68 69 70 70 70 71 71 72 72 73 74 75 75 74 72 71 69 69 68 68 67 65 63 62 60 59 59 58 58 57 55 54 52 52 51 50 52 55 57 60 59 58 57 56 54 52 50 50 52 53 54 54 53 53 53 53 53 53 53 53 53
50 50 52 55 57 59 62 65 66 67 69 70 69 70 70 71 72 74 75 77 76 74 72 71 70 70 69 68 67 67 66 66 65 64 63 61 60 59 57 56 54 53 52 50 51 53 56 59 61 60 59 57 55 52 51 51 54 55 55 55 54 53 52 50 50 51 51 51 51
52 52 53 54 57 60 63 66 66 67 69 71 71 71 71 72 73 76 78 79 78 75 73 71 72 72 71 70 68 68 68 68 68 67 66 65 63 62 60 58 57 56 55 54 53 55 57 59 60 60 59 57 55 52 50 51 54 55 55 55 54 53 52 50 49 50 51 50 50
53 53 54 55 58 62 66 68 68 69 70 72 72 72 73 73 74 77 79 80 79 78 76 74 73 73 73 74 72 70 69 68 68 68 67 66 65 64 62 60 59 58 57 56 56 57 59 60 61 61 60 58 56 53 52 51 53 54 54 54 53 53 52 51 51 51 51 51 50
55 54 55 56 59 62 65 68 69 71 73 75 76 76 76 75 75 76 78 80 82 83 82 79 76 74 74 75 75 74 72 71 70 69 69 67 66 65 63 62 60 59 58 57 57 58 59 61 61 61 61 60 58 55 53 52 53 53 54 54 53 53 52 51 50 51 51 51 51
60 58 58 59 60 62 63 64 66 68 72 75 77 78 80 79 77 77 78 80 82 83 84 83 81 78 77 76 76 76 75 73 72 71 70 69 67 66 64 63 62 61 60 59 59 58 59 60 61 62 62 61 59 57 55 54 54 54 54 54 54 53 52 51 50 50 51 51 51
61 59 60 60 61 62 62 61 61 61 63 65 69 73 77 78 77 76 76 77 79 78 78 78 79 79 79 77 77 77 76 75 73 71 71 70 69 68 67 65 64 64 63 62 61 61 60 60 61 62 63 62 61 59 57 56 56 55 55 54 53 53 52 52 51 51 52 52 51
60 58 58 59 61 61 62 62 62 60 60 59 64 67 70 71 71 70 69 70 72 73 73 72 72 74 75 76 76 76 76 75 74 73 72 71 71 70 69 68 67 66 65 64 64 64 64 63 63 64 65 65 64 62 61 60 59 57 56 55 54 53 52 51 51 51 51 52 51
59 56 55 57 60 64 67 68 69 68 66 64 64 65 66 68 67 66 65 64 68 72 74 74 72 72 72 73 74 74 75 75 76 76 75 74 73 73 72 70 69 68 67 66 66 66 66 66 66 66 67 67 66 65 64 63 62 60 58 57 55 54 53 51 50 49 50 50 50
59 56 53 53 58 64 71 74 76 75 74 71 70 68 68 68 69 67 64 62 64 68 72 75 74 73 72 72 73 74 75 75 78 79 80 78 76 75 74 73 72 71 70 69 68 67 67 67 67 67 67 67 67 66 65 64 63 62 60 58 56 55 54 52 50 49 49 48 48
61 55 51 48 52 61 69 74 77 78 78 78 76 75 74 74 73 71 69 67 67 68 69 72 73 73 72 72 73 74 75 77 79 82 83 83 81 80 79 78 76 74 72 71 70 69 68 68 67 67 67 67 67 67 66 66 65 63 62 60 57 55 54 52 50 49 48 47 47
60 53 46 41 47 57 66 73 76 78 78 77 76 76 75 75 74 73 72 72 71 71 70 69 68 68 67 67 68 68 69 72 75 82 87 92 91 90 87 85 82 79 76 74 71 70 68 68 67 67 67 66 66 66 66 66 66 65 64 63 60 57 55 54 52 49 47 46 46
57 49 42 36 43 56 67 73 75 76 77 76 75 75 74 74 73 73 73 73 73 73 71 69 66 64 62 61 61 60 61 62 66 73 83 94 101 104 103 100 96 93 88 83 79 75 73 71 71 71 70 68 66 65 66 67 67 68 67 67 64 61 57 56 53 51 49 47 46
51 45 39 33 39 53 66 74 76 77 77 76 75 75 74 75 74 74 73 73 73 73 72 71 68 66 65 63 62 60 59 59 60 62 67 75 89 100 104 102 98 94 89 86 83 82 80 78 77 75 74 73 71 68 68 68 69 70 70 70 67 64 60 57 54 52 50 48 47
46 42 37 35 39 50 64 74 76 77 76 75 76 77 78 79 80 79 77 76 76 75 75 75 74 73 71 70 68 66 63 60 60 59 59 60 67 73 78 80 80 77 75 74 74 75 74 75 74 74 74 73 71 69 66 63 63 64 65 66 66 64 61 58 54 51 49 47 46
47 45 44 43 47 57 68 74 75 74 74 74 76 78 80 82 83 84 84 84 82 82 81 81 79 77 75 73 72 71 68 65 62 59 57 55 57 61 67 73 74 73 73 74 74 74 73 71 71 71 72 72 71 69 66 62 59 58 57 57 58 59 59 58 55 51 48 46 45
56 57 58 57 62 69 76 77 77 77 77 76 78 79 81 81 84 85 87 85 84 83 81 79 76 74 71 71 72 73 74 72 68 64 60 55 52 53 58 67 72 73 72 72 74 75 75 74 72 71 70 70 69 69 67 65 59 57 56 54 52 51 51 52 51 49 46 43 41
73 79 80 83 87 87 87 86 86 86 86 84 85 85 86 87 90 90 90 88 86 84 80 74 72 70 69 69 67 69 73 76 76 74 69 63 53 48 48 59 70 74 74 72 71 71 72 72 72 71 70 69 66 65 63 64 61 58 56 54 50 47 46 46 45 44 42 39 36
99 107 111 114 107 102 99 98 99 99 98 98 97 97 97 97 95 94 93 93 92 89 85 77 73 71 72 71 67 66 67 70 73 75 74 71 62 52 46 51 69 78 79 75 72 71 69 69 69 69 70 70 69 66 63 61 59 57 55 53 49 46 44 41 39 38 36 35 33
127 133 135 132 123 115 111 110 111 112 112 113 112 111 107 102 97 95 93 92 91 90 88 85 82 81 80 78 73 69 65 62 63 65 67 67 64 58 50 47 66 78 80 77 74 71 69 67 66 67 66 65 66 64 60 57 55 53 51 50 46 44 42 40 36 33 31 31 30
146 149 147 140 131 124 121 120 122 125 127 128 124 118 111 103 96 91 87 85 84 83 84 88 91 90 86 83 78 72 66 61 57 56 57 59 60 58 54 49 58 72 78 76 73 71 69 67 65 64 63 62 63 62 60 57 55 53 51 49 45 43 42 41 37 33 29 26 25
159 158 151 142 134 129 126 127 132 137 139 137 128 117 108 100 94 89 86 84 85 85 87 90 91 90 89 85 78 73 67 61 55 51 51 53 57 57 55 52 55 67 76 76 73 70 68 67 66 64 63 60 60 61 61 59 58 56 53 50 46 42 40 39 35 32 29 25 22
162 161 152 142 136 133 132 135 140 143 141 134 123 113 105 99 95 91 89 89 90 91 91 90 90 90 90 87 83 77 70 61 53 47 45 46 53 55 54 49 49 60 73 78 74 71 68 66 67 66 65 62 62 62 61 62 60 58 56 52 48 43 38 34 32 28 26 24 21
164 161 152 143 139 137 137 141 145 143 137 127 118 112 108 105 102 99 96 93 90 87 85 85 86 86 87 86 86 83 75 64 53 44 40 42 52 55 53 47 43 52 67 81 78 73 69 67 67 67 67 64 64 63 62 61 59 56 55 52 48 44 40 34 30 26 23 19 18
164 160 153 145 143 142 145 148 148 142 133 123 117 114 113 112 110 107 103 98 91 87 84 82 82 82 81 81 83 82 79 69 56 45 39 41 52 56 55 48 39 43 57 80 80 76 71 67 66 66 66 65 64 63 62 61 59 55 52 51 48 44 39 35 30 25 20 11 6
166 161 155 149 149 149 151 153 150 142 133 125 121 118 116 113 111 109 108 106 103 99 95 92 91 89 86 82 79 78 76 72 62 50 42 39 50 56 57 52 43 41 49 76 81 79 74 69 68 67 66 65 64 63 63 62 60 55 50 47 45 42 37 32 27 23 16 4 355
171 164 157 153 153 155 155 155 150 143 135 130 127 124 120 115 111 110 112 114 113 109 105 102 98 94 89 84 80 74 70 69 68 59 49 42 47 53 55 53 46 41 45 66 84 85 79 74 72 69 67 67 66 63 61 61 61 54 47 40 38 34 31 27 22 17 11 2 353
175 170 162 156 157 158 159 159 153 145 138 133 130 127 123 119 116 115 117 120 116 112 106 100 93 87 82 79 77 71 65 62 68 67 61 50 49 51 53 51 46 40 40 52 83 90 86 80 75 68 63 62 64 62 56 52 56 51 42 28 25 21 18 17 13 11 9 4 356
177 176 169 161 160 161 163 163 155 147 139 134 130 127 125 122 120 119 120 121 118 113 107 101 93 86 81 79 80 77 70 62 65 68 67 60 55 54 53 51 45 40 37 41 72 89 92 89 79 67 55 49 56 59 56 42 40 39 31 9 356 353 355 357 356 1 4 7 360
173 180 179 168 163 164 165 163 153 145 137 133 130 129 127 125 122 119 117 115 115 113 111 107 101 97 94 93 92 89 83 72 66 65 65 62 56 53 51 50 47 42 38 36 55 79 95 98 88 73 58 43 44 53 63 50 27 18 4 335 314 308 314 330 340 346 354 1 359
171 180 185 177 170 167 164 159 148 140 135 133 131 129 126 123 121 122 122 121 119 116 115 113 114 114 114 111 106 101 95 86 74 67 62 62 58 52 47 48 48 45 41 37 42 60 88 106 98 85 69 48 36 39 63 92 334 328 331 320 310 302 301 321 331 337 343 351 354
168 177 185 184 176 169 162 152 143 137 134 131 129 126 123 123 125 130 134 134 130 127 124 123 125 126 125 122 116 111 104 97 87 77 71 68 65 57 48 45 48 49 46 40 31 38 63 101 105 98 85 65 37 22 19 106 280 308 324 329 325 323 326 330 331 333 339 345 348